Location: Newark
(58.8333°N, 23.5833°E)
Time: 13:22:42
(UTC+00:00)

A-11 Canister half - Pass Details

Date: 17 November 2019
Orbit: 1515 x 1685 km, 47.2° (Epoch: 08 December)

Event Time Altitude Azimuth Distance (km) Brightness Sun altitude
Rises 16:49:23 0° 214° (SW) 4,902 12.1 -21.2°
Reaches altitude 10° 16:53:02 10° 204° (SSW) 3,930 11.4 -21.7°
Maximum altitude 17:01:17 30° 149° (SSE) 2,693 10.0 -22.7°
Enters shadow 17:03:51 27° 125° (SE) 2,840 9.9 -23.1°
Drops below altitude 10° 17:09:33 10° 94° (E) 3,943 - -23.8°
Sets 17:13:11 0° 84° (E) 4,921 - -24.3°
